[[{"header":{"parameterUnit":"m.s-1","parameterCategory":1,"la1":30.2991,"la2":30.254,"lo1":-89.0895,"lo2":-89.0444,"dy":0.0017,"dx":0.0017,"nx":28,"ny":28,"refTime":"2026-01-30T09:00:00:Z","depth":0,"parameterNumber":2,"parameterNumberName":"U-component_of_WINDS"},"data":[0,0,0,0,0,0,0,0,0,0,0,0,0,0,0,0,0,0,0,0,0,0,0,0,0,0,0,0,0,0,0,0,0,0,0,0,0,0,0,0,0,0,0,0,0,0,0,0,0,0,0,0,0,0,0,0,0,0,3.0587,3.0587,0,3.0586,3.0586,3.0586,3.0534,3.0533,3.0532,3.0531,3.0529,3.053,3.0532,0,0,0,0,0,0,0,0,0,0,0,0,0,3.0546,3.0547,3.0587,3.0587,3.0587,3.0586,3.0586,3.0586,3.0535,3.0533,3.0531,3.053,3.0529,3.053,3.0532,0,0,0,0,0,0,0,0,0,0,0,0,0,3.0556,3.0548,3.0587,3.0561,3.0559,3.0586,3.0586,3.0586,3.0535,3.0533,3.0531,3.0529,3.0528,3.053,3.0532,3.0583,0,0,3.0537,3.0538,0,0,0,0,0,0,0,0,3.0556,3.0558,3.0565,3.0563,3.0561,3.0558,3.0571,3.0585,3.0536,3.0544,3.0531,3.0528,3.054,3.0541,3.0545,3.0583,3.0583,3.0538,3.0539,3.0539,3.054,0,0,0,0,0,0,0,3.0555,3.0558,3.0586,3.0565,3.0563,3.055,3.055,3.0573,3.0554,3.0543,3.054,3.054,3.0539,3.0544,3.0545,3.0583,3.0538,3.0539,3.054,3.0541,3.0664,3.0666,0,0,0,0,0,0,3.0558,3.0557,3.0586,3.0586,3.0553,3.0553,3.0552,3.0561,3.0553,3.055,3.0542,3.0538,3.0542,3.0543,3.0545,3.0604,3.0539,3.0541,3.0542,3.0662,3.0664,3.0667,0,0,0,0,0,0,3.0557,3.0561,3.0586,3.0571,3.0573,3.0555,3.0566,3.0562,3.0567,3.0552,3.0548,3.055,3.054,3.0542,3.0574,3.0603,3.0542,3.0544,3.0659,3.0662,3.0665,3.0724,0,0,0,0,0,0,3.0556,3.0561,3.058,3.0572,3.0574,3.0616,3.0568,3.0563,3.057,3.0565,3.0559,3.0556,3.0539,3.0572,3.0576,3.0605,3.0545,3.0656,3.066,3.0664,3.0719,3.0729,3.0737,0,0,0,0,0,3.0555,3.0596,3.0581,3.0585,3.0597,3.0617,3.0619,3.0598,3.0573,3.0591,3.0582,3.0556,3.06,3.0575,3.058,3.061,3.0654,3.0659,3.0664,3.0715,3.0727,3.0737,0,0,0,0,0,0,3.0607,3.0594,3.0577,3.0617,3.0619,3.0609,3.0632,3.0611,3.062,3.0614,3.0588,3.0587,3.0624,3.062,3.0593,3.0659,3.0623,3.0629,3.066,3.0671,3.068,3.0679,3.0547,0,0,0,0,0,3.0623,3.0641,3.0629,3.0665,3.0667,3.0649,3.0657,3.0641,3.0642,3.0642,3.0635,3.0637,3.0652,3.0661,3.0673,3.0719,3.0717,3.0742,3.0751,3.0758,3.0763,3.0788,3.0799,3.0683,3.0683,3.0682,0,0,3.0657,3.0652,3.0664,3.0675,3.0674,3.0693,3.065,3.0672,3.0685,3.0646,3.0675,3.0671,3.0671,3.0711,3.0727,3.0709,3.0795,3.0764,3.077,3.0771,3.0794,3.0805,3.0815,3.0686,3.0685,3.0685,0,0,3.0727,3.0725,3.0755,3.0756,3.0756,3.0745,3.0753,3.0746,3.0742,3.0771,3.0742,3.0759,3.0784,3.0785,3.079,3.0864,3.084,3.0869,3.0914,3.0938,3.0948,3.0955,3.0982,3.0992,3.0874,3.0874,3.0874,0,3.0768,3.0795,3.0773,3.0797,3.0803,3.0769,3.08,3.0802,3.0806,3.0811,3.079,3.0822,3.082,3.0859,3.0878,3.0882,3.089,3.0868,3.0948,3.0956,3.0963,3.0988,3.0998,3.0877,3.0877,3.0877,3.0876,0,3.0846,3.0865,3.089,3.0895,3.0904,3.0932,3.0915,3.0927,3.0911,3.0902,3.0934,3.093,3.0942,3.095,3.0935,3.0988,3.0977,3.0953,3.0915,3.0978,3.1001,3.101,3.0882,3.0881,3.088,3.0879,0,0,3.0946,3.0941,3.0951,3.0953,3.0952,3.0967,3.0994,3.1005,3.1016,3.1021,3.1043,3.1066,3.1044,3.1049,3.1034,3.1055,3.1114,3.1028,3.1028,3.1044,3.1174,3.1191,3.1202,3.11,3.1101,3.1103,3.1173,0,3.1014,3.1058,3.1041,3.1087,3.1105,3.1074,3.1098,3.11,3.1093,3.1108,3.1101,3.1117,3.1087,3.109,3.111,3.1103,3.114,3.1098,3.1119,3.112,3.1119,3.1214,3.1232,3.1299,3.1182,3.1184,3.1185,0,3.1098,3.1107,3.1155,3.1153,3.1159,3.1181,3.1191,3.1205,3.1208,3.1202,3.1209,3.1189,3.1215,3.1179,3.1216,3.1187,3.1196,3.1194,3.1196,3.1196,3.1155,3.1216,3.132,3.133,3.1199,3.1198,3.1197,0,3.1166,3.1191,3.1223,3.1226,3.1224,3.124,3.1239,3.124,3.1249,3.1258,3.1264,3.1276,3.1282,3.1293,3.1277,3.1252,3.1316,3.1278,3.1311,3.1312,3.1325,3.1324,3.143,3.1332,3.1332,3.1332,3.1331,0,3.1243,3.1273,3.1253,3.1273,3.1307,3.1287,3.1322,3.1318,3.1319,3.1338,3.1313,3.1331,3.1311,3.1327,3.1316,3.1348,3.1351,3.1347,3.1343,3.1348,3.1349,3.1352,3.1347,3.1334,3.1334,3.1333,3.1333,0,3.1323,3.1311,3.1344,3.1341,3.134,3.1365,3.1362,3.138,3.1373,3.1397,3.1402,3.139,3.1409,3.1395,3.1413,3.1405,3.1447,3.1438,3.1446,3.1443,3.1477,3.1474,3.1588,3.1602,3.1496,3.1497,3.1498,0,3.1372,3.1395,3.1394,3.1405,3.1407,3.1425,3.1434,3.1417,3.1428,3.1434,3.1452,3.1468,3.148,3.1511,3.1504,3.1518,3.1508,3.1548,3.151,3.1515,3.1508,3.1507,3.1509,3.1555,3.1556,3.1557,3.1558,0,3.146,3.1454,3.1468,3.1481,3.1493,3.1503,3.151,3.152,3.1503,3.1516,3.1535,3.1545,3.1564,3.1581,3.1593,3.1593,3.1573,3.157,3.1578,3.1583,3.1587,3.1585,3.1466,3.1567,3.1566,3.1565,3.1565,3.1564,3.1526,3.1546,3.1549,3.1566,3.157,3.1578,3.1595,3.1591,3.1606,3.1621,3.161,3.1633,3.1636,3.165,3.1653,3.1671,3.1655,3.1667,3.167,3.1673,3.1677,3.1586,3.1673,3.1673,3.1673,3.1672,3.1672,0,3.1613,3.1614,3.163,3.1641,3.1656,3.1637,3.1644,3.1657,3.1677,3.1683,3.1696,3.1718,3.1735,3.1731,3.1746,3.1761,3.1752,3.1765,3.1763,3.1764,3.1691,3.1682,3.1772,3.1772,3.1772,3.1772,3.1772,3.1772,3.1659,3.1691,3.1686,3.172,3.1721,3.1743,3.1749,3.1757,3.1761,3.1787,3.1801,3.1799,3.18,3.1816,3.1831,3.1829,3.1835,3.1852,3.1847,3.1779,3.1769,3.1759,3.1751,3.1854,3.1854,3.1918,3.1919,3.1919]},{"header":{"parameterUnit":"m.s-1","parameterCategory":1,"la1":30.2991,"la2":30.254,"lo1":-89.0895,"lo2":-89.0444,"dy":0.0017,"dx":0.0017,"nx":28,"ny":28,"refTime":"2026-01-30T09:00:00:Z","depth":0,"parameterNumber":3,"parameterNumberName":"V-component_of_WINDS"},"data":[0,0,0,0,0,0,0,0,0,0,0,0,0,0,0,0,0,0,0,0,0,0,0,0,0,0,0,0,0,0,0,0,0,0,0,0,0,0,0,0,0,0,0,0,0,0,0,0,0,0,0,0,0,0,0,0,0,0,-8.6919,-8.6922,0,-8.7176,-8.7179,-8.7182,-8.7115,-8.711,-8.7105,-8.71,-8.7359,-8.737,-8.7382,0,0,0,0,0,0,0,0,0,0,0,0,0,-8.6368,-8.6378,-8.6919,-8.6922,-8.6925,-8.7175,-8.7179,-8.7182,-8.7116,-8.711,-8.7103,-8.7098,-8.7355,-8.7369,-8.7383,0,0,0,0,0,0,0,0,0,0,0,0,0,-8.6614,-8.6382,-8.6918,-8.6922,-8.6925,-8.7175,-8.7179,-8.7183,-8.7117,-8.7109,-8.7102,-8.7095,-8.7351,-8.7367,-8.7385,-8.7645,0,0,-8.7438,-8.7445,0,0,0,0,0,0,0,0,-8.66,-8.6634,-8.6918,-8.6922,-8.6926,-8.7106,-8.7079,-8.7338,-8.7119,-8.7044,-8.71,-8.7091,-8.7281,-8.7303,-8.7368,-8.7657,-8.7668,-8.7439,-8.745,-8.7458,-8.7462,0,0,0,0,0,0,0,-8.6583,-8.6623,-8.702,-8.6923,-8.6927,-8.691,-8.6937,-8.7128,-8.7202,-8.705,-8.7046,-8.7077,-8.7281,-8.7351,-8.7374,-8.7672,-8.7439,-8.7454,-8.7465,-8.7472,-8.8187,-8.8195,0,0,0,0,0,0,-8.6564,-8.6609,-8.7012,-8.7028,-8.6741,-8.6926,-8.6956,-8.7056,-8.7199,-8.7214,-8.7084,-8.7073,-8.7325,-8.7353,-8.7382,-8.7697,-8.7457,-8.7474,-8.7484,-8.8179,-8.8189,-8.8198,0,0,0,0,0,0,-8.6552,-8.66,-8.7002,-8.6818,-8.6867,-8.6944,-8.7056,-8.7065,-8.7135,-8.7225,-8.7237,-8.7142,-8.732,-8.7358,-8.758,-8.7705,-8.7482,-8.7497,-8.8169,-8.8182,-8.8194,-8.8328,0,0,0,0,0,0,-8.6536,-8.6596,-8.6697,-8.682,-8.6878,-8.7197,-8.7064,-8.7075,-8.7166,-8.7155,-8.7283,-8.7297,-8.7317,-8.7555,-8.7598,-8.7725,-8.7511,-8.8158,-8.8175,-8.819,-8.8313,-8.8344,-8.837,0,0,0,0,0,-8.6517,-8.6723,-8.6702,-8.6751,-8.7005,-8.7204,-8.7237,-8.7257,-8.7176,-8.7277,-8.7335,-8.7293,-8.7684,-8.7578,-8.7626,-8.776,-8.815,-8.817,-8.8188,-8.83,-8.8338,-8.837,0,0,0,0,0,0,-8.661,-8.6739,-8.6717,-8.697,-8.7077,-8.7193,-8.7321,-8.7296,-8.7428,-8.7412,-8.743,-8.746,-8.7687,-8.7746,-8.7625,-8.802,-8.7905,-8.7935,-8.7973,-8.801,-8.8038,-8.802,-8.7526,0,0,0,0,0,-8.6661,-8.6813,-8.6917,-8.7129,-8.7185,-8.7244,-8.7331,-8.7338,-8.7449,-8.7493,-8.7567,-8.7676,-8.7823,-8.792,-8.806,-8.8321,-8.8348,-8.8437,-8.8465,-8.8488,-8.8514,-8.8657,-8.8698,-8.8261,-8.8261,-8.8261,0,0,-8.6765,-8.6855,-8.6949,-8.7151,-8.7234,-8.7391,-8.7282,-8.7452,-8.7568,-8.7519,-8.7734,-8.7792,-8.7914,-8.8157,-8.8268,-8.8213,-8.8641,-8.8513,-8.8531,-8.8544,-8.8681,-8.8722,-8.8759,-8.8274,-8.8272,-8.827,0,0,-8.7037,-8.712,-8.7306,-8.7393,-8.7522,-8.756,-8.7605,-8.7725,-8.7763,-8.7979,-8.7946,-8.8083,-8.8337,-8.8425,-8.8503,-8.881,-8.8776,-8.8855,-8.9005,-8.9144,-8.9179,-8.9209,-8.9319,-8.9358,-8.888,-8.888,-8.8881,0,-8.715,-8.7386,-8.7405,-8.758,-8.7669,-8.7633,-8.7822,-8.7904,-8.8072,-8.8134,-8.807,-8.8389,-8.8468,-8.8732,-8.8807,-8.8871,-8.8923,-8.884,-8.9172,-8.9203,-8.9232,-8.9337,-8.9378,-8.8889,-8.8888,-8.8887,-8.8886,0,-8.752,-8.7684,-8.782,-8.7984,-8.8089,-8.827,-8.8315,-8.8419,-8.8416,-8.8461,-8.8682,-8.8777,-8.8936,-8.8999,-8.8998,-8.9263,-8.9225,-8.9167,-8.9053,-8.9282,-8.9381,-8.9421,-8.8902,-8.8898,-8.8896,-8.8894,0,0,-8.7857,-8.8031,-8.808,-8.8155,-8.8295,-8.8422,-8.86,-8.8758,-8.8847,-8.8963,-8.9114,-8.933,-8.9278,-8.9366,-8.9375,-8.9497,-8.9734,-8.9424,-8.9427,-8.9479,-9.0033,-9.0077,-9.0123,-8.9713,-8.972,-8.9727,-9.0023,0,-8.8141,-8.8458,-8.8481,-8.8766,-8.8918,-8.8886,-8.9042,-8.9144,-8.9191,-8.9326,-8.9377,-8.953,-8.9449,-8.9503,-8.9622,-8.968,-8.9846,-8.9659,-8.9852,-8.9859,-8.9824,-9.0175,-9.0221,-9.0496,-9.0062,-9.0069,-9.0073,0,-8.8515,-8.8645,-8.8947,-8.9066,-8.913,-8.927,-8.9417,-8.9547,-8.9662,-8.9687,-8.9788,-8.9779,-8.9962,-8.9841,-9.0093,-8.9966,-9.0046,-9.0087,-9.0098,-9.0117,-8.998,-9.0204,-9.0585,-9.0626,-9.0134,-9.0129,-9.0125,0,-8.8731,-8.8982,-8.9195,-8.926,-8.9404,-8.9503,-8.9568,-8.9675,-8.9769,-8.9897,-8.9958,-9.0105,-9.0185,-9.0299,-9.033,-9.0239,-9.0582,-9.0463,-9.0608,-9.0607,-9.0682,-9.0677,-9.1082,-9.0733,-9.0732,-9.0731,-9.0731,0,-8.9047,-8.9232,-8.9294,-8.9425,-8.9632,-8.9656,-8.986,-8.9919,-9.0015,-9.0156,-9.0137,-9.027,-9.0303,-9.0442,-9.0467,-9.0673,-9.0709,-9.0734,-9.0739,-9.0737,-9.0733,-9.0789,-9.0771,-9.0742,-9.074,-9.0738,-9.0736,0,-8.9324,-8.9372,-8.9603,-8.9721,-8.9755,-8.9903,-9.0004,-9.0129,-9.0174,-9.0353,-9.0396,-9.0465,-9.0628,-9.0671,-9.0864,-9.0881,-9.1124,-9.111,-9.1086,-9.1086,-9.1228,-9.1215,-9.1684,-9.1747,-9.1356,-9.136,-9.1363,0,-8.9522,-8.9664,-8.9799,-8.9893,-8.9962,-9.0114,-9.021,-9.0239,-9.0339,-9.0482,-9.0591,-9.0751,-9.0881,-9.1142,-9.1209,-9.1357,-9.1347,-9.1501,-9.1369,-9.1363,-9.135,-9.1342,-9.1356,-9.1526,-9.1531,-9.1534,-9.1537,0,-8.9869,-8.9886,-9.0026,-9.0176,-9.0291,-9.041,-9.0523,-9.0601,-9.0645,-9.0759,-9.0926,-9.1027,-9.1226,-9.1386,-9.1536,-9.1601,-9.1577,-9.1578,-9.1619,-9.1619,-9.1599,-9.1613,-9.1155,-9.1567,-9.1564,-9.1562,-9.156,-9.1559,-9.0113,-9.0239,-9.0353,-9.051,-9.0599,-9.0706,-9.083,-9.0891,-9.1031,-9.1196,-9.1204,-9.1386,-9.1498,-9.1697,-9.1771,-9.1912,-9.1866,-9.1926,-9.1941,-9.1955,-9.1968,-9.1577,-9.1939,-9.1939,-9.1938,-9.1937,-9.1937,0,-9.046,-9.0532,-9.0676,-9.0836,-9.096,-9.0928,-9.1052,-9.1157,-9.1318,-9.1425,-9.1554,-9.1746,-9.1901,-9.198,-9.2134,-9.2232,-9.2225,-9.2272,-9.2265,-9.2281,-9.2001,-9.195,-9.2275,-9.2275,-9.2275,-9.2275,-9.2275,-9.2275,-9.0655,-9.0866,-9.0897,-9.1152,-9.1223,-9.1402,-9.1476,-9.1574,-9.166,-9.1876,-9.2005,-9.2057,-9.2153,-9.2314,-9.2454,-9.2473,-9.2531,-9.2584,-9.2598,-9.2335,-9.23,-9.2267,-9.222,-9.2596,-9.2597,-9.2866,-9.2868,-9.287]}]]